Stündliche Wetter Abadiânia

Heute, 2 März, Dienstag

Zeit Temperatur Niederschläge Wind Luftdruck Luftfeuchtigkeit
00:00 +20°C° 0.3 mm 1 m/S 674 mmHg 95%
01:00 +20°C° 0.8 mm 1 m/S 674 mmHg 95%
02:00 +20°C° 0.8 mm 1 m/S 674 mmHg 95%
03:00 +19°C° 0.8 mm 2 m/S 673 mmHg 94%
04:00 +19°C° 0.4 mm 2 m/S 674 mmHg 95%
05:00 +20°C° 0.4 mm 1 m/S 674 mmHg 95%
06:00 +20°C° 0.4 mm 1 m/S 674 mmHg 95%
07:00 +20°C° 0 mm 2 m/S 675 mmHg 92%
08:00 +21°C° 0 mm 3 m/S 676 mmHg 89%
09:00 +22°C° 0 mm 4 m/S 676 mmHg 87%
10:00 +23°C° 0.9 mm 4 m/S 676 mmHg 86%
11:00 +23°C° 0.9 mm 4 m/S 676 mmHg 84%
12:00 +25°C° 0.9 mm 3 m/S 676 mmHg 83%
13:00 +25°C° 1.2 mm 3 m/S 676 mmHg 83%
14:00 +26°C° 1.2 mm 3 m/S 675 mmHg 82%
15:00 +26°C° 1.2 mm 3 m/S 674 mmHg 82%
16:00 +25°C° 1.2 mm 2 m/S 674 mmHg 85%
17:00 +24°C° 1.2 mm 2 m/S 674 mmHg 88%
18:00 +23°C° 1.2 mm 2 m/S 673 mmHg 91%
19:00 +21°C° 0.7 mm 2 m/S 674 mmHg 92%
20:00 +21°C° 0.7 mm 2 m/S 675 mmHg 94%
21:00 +20°C° 0.7 mm 2 m/S 675 mmHg 95%
22:00 +20°C° 0.2 mm 2 m/S 676 mmHg 95%
23:00 +19°C° 0.2 mm 2 m/S 676 mmHg 95%

Morgen, 3 März, Mittwoch

Zeit Temperatur Niederschläge Wind Luftdruck Luftfeuchtigkeit
00:00 +19°C° 0.2 mm 2 m/S 676 mmHg 95%
01:00 +19°C° 0 mm 2 m/S 676 mmHg 95%
02:00 +18°C° 0 mm 2 m/S 676 mmHg 96%
03:00 +18°C° 0 mm 2 m/S 675 mmHg 96%
04:00 +18°C° 0 mm 2 m/S 675 mmHg 96%
05:00 +18°C° 0 mm 2 m/S 675 mmHg 96%
06:00 +17°C° 0 mm 2 m/S 676 mmHg 96%
07:00 +19°C° 0 mm 2 m/S 676 mmHg 93%
08:00 +20°C° 0 mm 3 m/S 677 mmHg 89%
09:00 +21°C° 0 mm 4 m/S 678 mmHg 86%
10:00 +24°C° 0 mm 3 m/S 678 mmHg 80%
11:00 +25°C° 0 mm 3 m/S 678 mmHg 74%
12:00 +27°C° 0 mm 3 m/S 678 mmHg 68%
13:00 +27°C° 0.6 mm 3 m/S 678 mmHg 70%
14:00 +27°C° 0.6 mm 2 m/S 677 mmHg 72%
15:00 +26°C° 0.6 mm 2 m/S 676 mmHg 74%
16:00 +25°C° 0.6 mm 1 m/S 676 mmHg 79%
17:00 +25°C° 0.6 mm 1 m/S 676 mmHg 83%
18:00 +24°C° 0.6 mm 1 m/S 675 mmHg 88%
19:00 +23°C° 0.1 mm 1 m/S 676 mmHg 89%
20:00 +22°C° 0.1 mm 1 m/S 676 mmHg 91%
21:00 +21°C° 0.1 mm 1 m/S 676 mmHg 93%
22:00 +20°C° 0.1 mm 1 m/S 676 mmHg 94%
23:00 +20°C° 0.1 mm 1 m/S 677 mmHg 94%

übermorgen, 4 März, Donnerstag

Zeit Temperatur Niederschläge Wind Luftdruck Luftfeuchtigkeit
00:00 +20°C° 0.1 mm 1 m/S 677 mmHg 95%
01:00 +20°C° 0 mm 1 m/S 676 mmHg 95%
02:00 +20°C° 0 mm 1 m/S 676 mmHg 94%
03:00 +19°C° 0 mm 1 m/S 676 mmHg 94%
04:00 +19°C° 0 mm 1 m/S 676 mmHg 94%
05:00 +19°C° 0 mm 1 m/S 676 mmHg 94%
06:00 +19°C° 0 mm 1 m/S 676 mmHg 94%
07:00 +20°C° 0 mm 1 m/S 677 mmHg 90%
08:00 +22°C° 0 mm 1 m/S 677 mmHg 86%
09:00 +24°C° 0 mm 1 m/S 678 mmHg 83%
10:00 +25°C° 0.1 mm 2 m/S 678 mmHg 76%
11:00 +26°C° 0.1 mm 2 m/S 678 mmHg 70%
12:00 +27°C° 0.1 mm 2 m/S 678 mmHg 64%
13:00 +27°C° 0.8 mm 2 m/S 678 mmHg 69%
14:00 +27°C° 0.8 mm 2 m/S 677 mmHg 73%
15:00 +26°C° 0.8 mm 2 m/S 676 mmHg 78%
16:00 +25°C° 0.8 mm 1 m/S 676 mmHg 81%
17:00 +25°C° 0.8 mm 1 m/S 675 mmHg 84%
18:00 +24°C° 0.8 mm 1 m/S 675 mmHg 87%
19:00 +21°C° 0.6 mm 0 m/S 675 mmHg 89%
20:00 +20°C° 0.6 mm 0 m/S 675 mmHg 90%
21:00 +19°C° 0.6 mm 0 m/S 676 mmHg 91%
22:00 +18°C° 0 mm 0 m/S 676 mmHg 91%
23:00 +18°C° 0 mm 0 m/S 676 mmHg 92%

5 März, Freitag

Zeit Temperatur Niederschläge Wind Luftdruck Luftfeuchtigkeit
00:00 +18°C° 0 mm 0 m/S 676 mmHg 92%
01:00 +18°C° 0 mm 0 m/S 675 mmHg 93%
02:00 +18°C° 0 mm 0 m/S 675 mmHg 93%
03:00 +18°C° 0 mm 0 m/S 675 mmHg 93%
04:00 +17°C° 0.2 mm 0 m/S 675 mmHg 94%
05:00 +17°C° 0.2 mm 0 m/S 675 mmHg 94%
06:00 +17°C° 0.2 mm 0 m/S 675 mmHg 94%
07:00 +19°C° 0 mm 0 m/S 675 mmHg 91%
08:00 +22°C° 0 mm 1 m/S 676 mmHg 89%
09:00 +23°C° 0 mm 1 m/S 677 mmHg 86%
10:00 +25°C° 0.2 mm 1 m/S 677 mmHg 80%
11:00 +26°C° 0.2 mm 2 m/S 676 mmHg 75%
12:00 +27°C° 0.2 mm 2 m/S 676 mmHg 70%
13:00 +27°C° 0.9 mm 2 m/S 676 mmHg 73%
14:00 +26°C° 0.9 mm 2 m/S 675 mmHg 76%
15:00 +26°C° 0.9 mm 2 m/S 674 mmHg 79%
16:00 +25°C° 0.8 mm 2 m/S 674 mmHg 83%
17:00 +25°C° 0.8 mm 2 m/S 674 mmHg 87%
18:00 +24°C° 0.8 mm 2 m/S 673 mmHg 90%
19:00 +23°C° 1 mm 1 m/S 674 mmHg 91%
20:00 +22°C° 1 mm 1 m/S 674 mmHg 92%
21:00 +21°C° 1 mm 1 m/S 674 mmHg 93%
22:00 +21°C° 0.3 mm 1 m/S 674 mmHg 93%
23:00 +21°C° 0.3 mm 1 m/S 675 mmHg 93%

6 März, Samstag

Zeit Temperatur Niederschläge Wind Luftdruck Luftfeuchtigkeit
00:00 +19°C° 0.3 mm 0 m/S 675 mmHg 93%
01:00 +19°C° 0.3 mm 0 m/S 675 mmHg 93%
02:00 +18°C° 0.3 mm 0 m/S 674 mmHg 94%
03:00 +20°C° 0.3 mm 1 m/S 674 mmHg 94%
04:00 +20°C° 0.2 mm 1 m/S 674 mmHg 93%
05:00 +20°C° 0.2 mm 1 m/S 674 mmHg 93%
06:00 +20°C° 0.2 mm 1 m/S 674 mmHg 93%
07:00 +21°C° 0 mm 1 m/S 675 mmHg 91%
08:00 +22°C° 0 mm 1 m/S 675 mmHg 89%
09:00 +23°C° 0 mm 1 m/S 676 mmHg 88%
10:00 +24°C° 0.8 mm 1 m/S 676 mmHg 85%
11:00 +25°C° 0.8 mm 2 m/S 676 mmHg 82%
12:00 +26°C° 0.8 mm 2 m/S 676 mmHg 79%
13:00 +26°C° 1.3 mm 2 m/S 676 mmHg 80%
14:00 +26°C° 1.3 mm 3 m/S 675 mmHg 80%
15:00 +26°C° 1.3 mm 3 m/S 674 mmHg 81%
16:00 +25°C° 1 mm 3 m/S 674 mmHg 84%
17:00 +25°C° 1 mm 2 m/S 674 mmHg 87%
18:00 +24°C° 1 mm 2 m/S 674 mmHg 90%
19:00 +23°C° 0.2 mm 1 m/S 674 mmHg 91%
20:00 +22°C° 0.2 mm 1 m/S 674 mmHg 92%
21:00 +21°C° 0.2 mm 1 m/S 675 mmHg 92%
22:00 +21°C° 0 mm 1 m/S 675 mmHg 92%
23:00 +21°C° 0 mm 1 m/S 675 mmHg 92%

7 März, Sonntag

Zeit Temperatur Niederschläge Wind Luftdruck Luftfeuchtigkeit
00:00 +21°C° 0 mm 1 m/S 675 mmHg 92%
01:00 +19°C° 0.1 mm 0 m/S 675 mmHg 93%
02:00 +19°C° 0.1 mm 0 m/S 675 mmHg 93%
03:00 +19°C° 0.1 mm 0 m/S 675 mmHg 93%
04:00 +18°C° 0 mm 0 m/S 675 mmHg 93%
05:00 +18°C° 0 mm 0 m/S 675 mmHg 93%
06:00 +18°C° 0 mm 0 m/S 675 mmHg 92%
07:00 +19°C° 0 mm 0 m/S 675 mmHg 90%
08:00 +21°C° 0 mm 0 m/S 676 mmHg 87%
09:00 +24°C° 0 mm 1 m/S 677 mmHg 85%
10:00 +25°C° 0.5 mm 1 m/S 677 mmHg 83%
11:00 +25°C° 0.5 mm 1 m/S 677 mmHg 81%
12:00 +26°C° 0.5 mm 2 m/S 676 mmHg 78%
13:00 +26°C° 1.1 mm 2 m/S 676 mmHg 78%
14:00 +27°C° 1.1 mm 2 m/S 676 mmHg 78%
15:00 +27°C° 1.1 mm 2 m/S 675 mmHg 77%
16:00 +26°C° 1.7 mm 2 m/S 675 mmHg 81%
17:00 +25°C° 1.7 mm 1 m/S 674 mmHg 85%
18:00 +24°C° 1.7 mm 1 m/S 674 mmHg 89%
19:00 +23°C° 0.4 mm 1 m/S 674 mmHg 89%
20:00 +21°C° 0.4 mm 0 m/S 675 mmHg 89%
21:00 +20°C° 0.4 mm 0 m/S 675 mmHg 90%
22:00 +19°C° 0 mm 0 m/S 675 mmHg 90%
23:00 +19°C° 0 mm 0 m/S 675 mmHg 91%
Mehr zeigen

Wir brauchen deine Erlaubnis

Meteoprog und unser Service Anbieter werden persönliche Daten aufbewahren, so wie Cookies, Geräte Bezeichnung oder ähnliche Technologien von deinem Gerät und Prozess, so wie Persönliche Daten Inhalte und Werbungen, genauso wie social Media und den Verkehr zu analysieren.

  • Aufbewahrung und/oder Zugang zu deiner Geräte Informationen.

    Cookies, Geräte Bezeichnung oder andere Informationen, können aufbewahrt oder Zugang zu deinem Gerät erhalten, für den Grund, der oben angegeben wird.

  • Personalisierte Werbung und Inhalte, Messungen, Einblick in das Publikum und Produkt Entwicklung.

    Werbungen und Inhalte können personalisiert werden, basierend auf ein Profil. Mehr Daten können besser personalisierte Werbungen und Inhalte hinzufügen. Werbung und Inhalte können gezeigt und gemessen werden. Einblicke über das Publikum, welche die Werbung gesehen haben und den Inhalt, können abgeleitet werden. So wie Daten können genutzt werden, um es zu verbessern oder die Benutzer Erfahrung zu verbessern das System und die Software.

Wenn du “Ich stimme zu” klickst, erlaubst du uns, die Cookies zu benutzen die Geräte Bezeichnung, den Web oder ähnliche Technologien zu benutzen. Deine Settings, können in deinem Gerät bei deinem Browser geändert werden.

Für den bestimmten Zweck, berechtigten Interessen beruhen darauf, mehr als auf den Inhalt. Du kannst mehr darüber in unseren Privaten und Cookie Politik lesen.